Location: Unspecified
(0.0000°N, 0.0000°E)
Time: 15:20:04
(UTC+01:00)

Ariane H10 - Visible Passes

Search period start: 29 January 2015 00:00
Search period end: 08 February 2015 00:00
Orbit: 398 x 35122 km, 4.5° (Epoch: 27 January)

Date Brightness Start Highest point End Pass type
(mag) Time Alt. Az. Time Alt. Az. Time Alt. Az.
29 Jan 3.9 04:52:55 65° WSW 04:54:20 78° S 14:24:32 10° E visible
30 Jan 4.2 12:33:21 10° W 21:58:52 66° NW 21:58:52 66° NW visible
01 Feb 4.5 05:27:35 35° W 05:32:13 78° S 15:05:55 10° E visible
02 Feb 5.0 22:19:30 10° W 22:33:28 38° WNW 22:33:28 38° WNW visible
04 Feb 5.2 06:02:11 18° W 06:10:53 79° S 15:45:26 10° E visible
05 Feb 6.2 02:46:19 14° E 02:46:19 14° E 02:48:26 10° E visible
05 Feb 5.8 23:04:09 10° W 23:07:57 18° W 23:07:57 18° W visible
06 Feb 5.3 10:07:26 10° W 19:41:49 78° N 19:52:03 10° E visible
07 Feb 5.7 06:37:11 10° W 06:50:50 80° S 16:23:42 10° E visible
